Погода в Горелове

Россия / Ярославская область     58°14′13″N   38°07′11″E
темп.,
°C
ветер,
м/с
пор.,
м/с
влажн.,
%
обл.,
%
осадки,
мм/ч
давл.,
гПа
погр.,
м
25 июля, вс
вс2500:00+15зюз475795 0.0 1016211
03:00+14з3661100 0.0 1017228
06:00+13зсз46608 0.0 1018215
09:00+17зсз47465 0.0 1019857
12:00+19с35405 0.0 10191020
15:00+21сз034399 0.0 10191290
18:00+19зсз2355100 0.0 1019102
21:00+17зюз226499 0.0 102032
26 июля, пн
пн2600:00+16юз3566100 0.0 1021118
03:00+16зюз3566100 0.0 1021123
06:00+16з3565100 0.0 1021173
09:00+17з3661100 0.0 1022220
12:00+21з465177 0.0 1022512
15:00+22ссз4651100 0.1 10211478
18:00+21ююз226184 0.1 102040
21:00+19с236952 0.1 102162
27 июля, вт
вт2700:00+17зюз34785 0.1 102143
03:00+16з34819 0.1 102181
06:00+17зсз237995 0.0 1021111
09:00+19ссз23685 0.0 1021309
12:00+21ссв246227 0.1 1021741
15:00+23св335665 0.4 1019907
18:00+22вюв00605 0.4 101895
21:00+20всв22708 0.5 101821
28 июля, ср
ср2800:00+18вюв22845 0.0 101815
03:00+16ю348332 0.0 101767
06:00+18ю237441 0.1 101677
09:00+22юз34585 0.1 1015238
12:00+26ююз13443 0.0 10131577
15:00+26ю265080 0.0 1011918
18:00+24з365867 0.1 1009263
21:00+18ююз511892 1.4 1009238
29 июля, чт
чт2900:00+16юз379117 0.1 1008155
03:00+15ююз239215 0.1 100767
06:00+15ю2291100 0.0 100688
09:00+18юв127979 0.0 1005362
12:00+22всв22645 0.0 1004700
15:00+23всв33619 0.0 10031020
18:00+24ю245799 0.0 1001509
21:00+19юз338524 1.6 100143